www.pogodaiklimat.ru

Погода и климат >> Архив погоды >> Россия >> Ростовская область >> Ростов-на-Дону


АРХИВ ПОГОДЫ в Ростове-на-Дону

Время (UTC), дата Ветер
(напр.,м/с)
 
Видим.   Явления Облачность Т
(С)
Тd
(С)
f
(%)
Тe
(С)
Тes
(С)
Комфортность P
(гПа)
Po
(гПа)
Тmin
(С)
Tmax
(С)
R
(мм)
R24
(мм)
S
(см)
00 16.04 н/о ясно +5.3 -5.4 46 1026.8 1016.5
03 16.04 н/о ясно +5.5 -4.6 48 1026.5 1016.3 +4.8
06 16.04 н/о 4/0
[Ac und]
+13.9 -4.6 27 1026.1 1016.2
09 16.04 н/о 6/0
[Ac und]
+15.5 -5.1 24 1024.8 1014.9
12 16.04 н/о 8/6 600 м
[Sc Ac und]
+15.9 -3.6 26 1024.0 1014.1
15 16.04 З 1 10 км слабый дождь 9/6 600 м
[Sc Ac und]
+13.9 +0.2 39 +15 +15 тепло 1022.7 1012.8 +17.5 0.0
18 16.04 н/о {дождь} 9/6 600 м
[Sc Ac und]
+12.8 -2.7 34 1022.7 1012.7
21 16.04 н/о 8/4 600 м
[Cb calv Ac und]
+12.1 -1.4 39 1022.3 1012.3
00 17.04 н/о 3/0
[Ac und]
+8.7 -0.1 54 1021.7 1011.7
03 17.04 н/о 3/0
[Ac und]
+7.6 +1.6 66 1021.3 1011.2 +7.6 0.9
06 17.04 н/о 8/0
[Ac trans]
+12.9 +2.6 50 1021.8 1011.9
09 17.04 н/о ясно +18.7 +4.9 40 1021.1 1011.4
12 17.04 н/о 8/0
[Ci fib]
+22.4 +3.9 30 1020.0 1010.4
15 17.04 н/о 9/0
[Ac trans]
+18.8 +4.4 39 1019.9 1010.2 +22.4
18 17.04 н/о 8/0
[Ci fib]
+14.5 +5.6 55 1020.6 1010.7
21 17.04 н/о 8/0
[Ci fib]
+11.5 +7.0 74 1021.0 1011.0
00 18.04 н/о 8/0
[Ci fib]
+10.6 +7.2 79 1020.6 1010.6
03 18.04 н/о 9/0
[Ac trans]
+9.9 +6.4 79 1020.8 1010.8 +9.7
06 18.04 н/о 5/0
[Ac und]
+19.0 +6.6 44 1020.5 1010.8 +9.6
09 18.04 н/о 6/0
[Ac und]
+22.1 +4.6 32 1019.5 1009.9
12 18.04 н/о 10/6 600 м
[Sc Ac und]
+19.0 +3.3 35 1018.5 1008.8
15 18.04 н/о 10/6 600 м
[Sc Ac und]
+16.2 +3.6 43 1017.1 1007.3 +22.9
18 18.04 н/о 8/4 600 м
[Sc Ac und]
+15.2 +5.7 53 1016.5 1006.7
21 18.04 н/о в посл. час ливневой дождь 8/5 600 м
[Sc Ac und]
+12.4 +9.7 84 1014.8 1005.0
00 19.04 н/о дымка {ливн. осадки} 6/3 600 м
[Cb calv Ac und]
+11.7 +10.3 91 1013.2 1003.3
03 19.04 н/о дымка 6/4 600 м
[Cb calv Ac und]
+11.0 +9.2 89 1011.3 1001.4 +11.0
06 19.04 н/о 3/0
[Ci fib]
+14.8 +5.1 52 1010.0 1000.2 +10.8
09 19.04 н/о 8/4 600 м
[Sc diur, vesp Ac trans]
+15.6 +4.0 46 1008.0 998.3
12 19.04 н/о 6/3 600 м
[Sc diur, vesp Ac trans]
+14.0 +4.7 53 1006.0 996.2
15 19.04 н/о в посл. час дождь 9/8 600 м
[Sc diur, vesp Ac trans]
+12.3 +6.7 69 1004.3 994.5 +16.6 0.0
18 19.04 н/о в посл. час дождь 5/3 600 м
[Sc diur, vesp Ac trans]
+10.6 +7.0 78 1003.4 993.6
21 19.04 н/о 9/6 600 м
[Sc diur, vesp Ac trans]
+9.8 +6.5 80 1002.4 992.6
00 20.04 н/о слабый дождь 8/5 600 м
[Sc diur, vesp Ac trans]
+8.9 +6.9 87 1001.6 991.7
03 20.04 н/о {дождь} 8/6 600 м
[Sc diur, vesp Ac trans]
+8.7 +6.5 86 1001.8 991.9 +8.7 0.3
06 20.04 н/о {дождь} 10/8 1000 м
[Sc Ac und]
+9.2 +4.9 74 1002.8 992.9
09 20.04 н/о 10/8 600 м
[Cb calv Ac und]
+10.2 +4.8 69 1004.6 994.8
12 20.04 н/о в посл. час ливневой дождь 10/8 1000 м
[Cb calv Ac und]
+11.4 +5.1 65 1006.3 996.5
15 20.04 н/о {ливн. осадки} 10/8 1000 м
[Cb calv Ac und]
+11.1 +5.4 68 1008.1 998.3 +12.2 0.3
18 20.04 н/о {ливн. осадки} 9/8 600 м
[Sc Ac trans]
+10.0 +6.4 78 1010.5 1000.6
21 20.04 н/о 9/0
[Ac trans]
+9.7 +6.1 78 1011.6 1001.7
00 21.04 н/о 9/0
[Ac trans]
+9.7 +5.0 73 1012.2 1002.2
03 21.04 н/о 1/0
[Ac trans]
+7.2 +4.1 81 1013.7 1003.7 +7.2
06 21.04 н/о ясно +13.6 +3.4 50 1014.8 1005.0 +7.2
09 21.04 н/о 4/4 600 м
[Cu med, cong]
+16.3 +0.2 33 1014.1 1004.3
12 21.04 н/о 6/3 600 м
[Sc diur, vesp Ac trans]
+19.0 -0.3 27 1012.3 1002.7
15 21.04 н/о 4/0
[Ci fib]
+16.1 +1.3 37 1011.2 1001.5 +19.2
18 21.04 н/о ясно +12.4 +4.7 59 1010.5 1000.7
21 21.04 н/о 3/0
[Ac trans]
+11.1 +2.0 53 1008.9 999.0
00 22.04 н/о ясно +10.9 +2.2 55 1006.1 996.2
03 22.04 н/о 8/5 600 м
[Sc diur, vesp Ac trans]
+12.2 +4.1 58 1004.1 994.4 +10.2
06 22.04 н/о {ливн. осадки, дождь} 8/3 600 м
[Sc Ac trans]
+13.0 +8.0 72 1004.4 994.6
09 22.04 н/о 8/0
[Ci fib]
+17.1 +7.3 52 1004.0 994.4
12 22.04 н/о 1/1 1000 м
[Cu hum]
+19.8 +3.1 33 1003.4 993.9
15 22.04 н/о 5/0
[Ac trans]
+18.5 -3.6 22 1003.9 994.3 +20.1 3
18 22.04 н/о 4/0
[Ac trans]
+15.0 -4.1 26 1006.4 996.6
21 22.04 н/о ясно +12.7 -3.2 33 1007.9 998.1

 

Местоположение метеостанции Ростов-на-Дону (Ростовская область, Россия): широта 47.27 долгота 39.82 высота над уровнем моря 75 м.

В архиве по умолчанию представлена погода в Ростове-на-Дону за последнюю неделю. Архивные данные за месяц целиком и за предыдущие месяцы, начиная с января 2011 года, Вы можете получить, выбрав интересующий диапазон дат из раскрывающегося списка и нажав кнопку "Ввод!".


*Определитесь, кто Вы:
робот инопланетянин человек

Внимание! Время в таблицах - всемирное. Для получения местного времени необходимо прибавить поправку, которая в Ростове-на-Дону равна 3 ч.

Смотрите также архив погоды в соседних городах и на ближайших метеорологических станциях:

Погода в Аэропорту Платов (Ростовская область, Россия) (26 км)
Погода в Шахтах (Ростовская область, Россия) (59 км)
Погода в Зерноград (Ростовская область, Россия) (60 км)
Погода в Таганроге (Ростовская область, Россия) (70 км)
Погода в Матвеевом Кургане (Ростовская область, Россия) (78 км)
Погода в Семикаракорске (Ростовская область, Россия) (81 км)
Погода в Маргаритово (Ростовская область, Россия) (81 км)
Погода в Кущевской (Краснодарский край, Россия) (84 км)
Погода в Константиновске (Ростовская область, Россия) (102 км)
Погода в Староминская (Краснодарский край, Россия) (102 км)

Пояснения к столбцам:

Ветер - указаны скорость ветра в м/с - средняя за 10 мин, порывы в срок и между сроками (в фигурных скобках) и направление, откуда дует ветер: С - северный, СВ - северо-восточный, В - восточный, ЮВ - юго-восточный, Ю - южный, ЮЗ - юго-западный, З - западный, СЗ - северо-западный.
Видимость - горизонтальная дальность видимости в метрах или километрах. При видимости от 1 до 10 км при отсутствии осадков обычно наблюдается дымка, при ухудшении видимости до 1 км и менее - туман. В сухую погоду видимость может ухудшаться дымом, пылью или мглою.
Явления - указаны атмосферные явления, наблюдавшиеся в срок или в последний час перед сроком; фигурными скобками обозначены явления, наблюдавшиеся между сроками (за 1-3 часа до срока); квадратными скобками обозначены град или гололедные отложения с указанием их диаметра в мм.
Облачность - указаны через наклонную черту общая и нижняя облачность в баллах и высота нижней границы облаков в метрах; квадратными скобками обозначены формы облаков: Ci - перистые, Cs - перисто-слоистые, Cc - перисто-кучевые, Ac - высококучевые, As - высокослоистые, Sc - слоисто-кучевые, Ns - слоисто-дождевые, Cu - кучевые, Cb - кучево-дождевые. Подробнее классификацию облаков см. в Атласе облаков (PDF).
T - Температура воздуха - температура, измеренная на высоте 2 м над землей.
Td - Температура точки росы - температура, при понижении до которой содержащийся в воздухе водяной пар достигнет насыщения.
f - Относительная влажность воздуха - влажноcть воздуха, измеренная на высоте 2 м над землей.
Te - Эффективная температура - температура, которую ощущает одетый по сезону человек в тени. Характеристика душности погоды. При расчете учитывается влияние влажности воздуха и скорости ветра на теплоощущения человека.
Tes - Эффективная температура на солнце - температура, которую ощущает человек, с поправкой на солнечный нагрев. Характеристика знойности погоды. Зависит от высоты солнца над горизонтом, облачности и скорости ветра. Ночью, в пасмурную погоду, а также при ветре 12 м/с и более поправка равна нулю.
P - Атмосферное давление - приведенное к уровню моря атмосферное давление.
Po - Атмосферное давление - измеренное на уровне метеостанции атмосферное давление.
Tmin - Минимальная температура - минимум температуры воздуха на высоте 2 м над землей.
Tmax - Максимальная температура - максимум температуры воздуха на высоте 2 м над землей.
R - Количество осадков - Количество выпавших осадков за период времени, мм. При наведении курсора мыши на число - период времени, за который выпало указанное количество осадков.
R24 - Количество осадков - Количество выпавших осадков за 24 часа, мм.
S - Снежный покров - Высота снежного покрова, см. При наведении курсора мыши на число - состояние снежного покрова и степень покрытия местности в баллах.